DW8397 Weather Reports


time (UTC)temp
F
wind
direction
speed
knots
gust
knots
rain 1hr
in
rain 24hr
in
rain mn
in
humidity
%
barometer
mb
20260831124529 56 193 0.0 0.0 0.00 0.00 0.00 88 1019.0
20260831123025 54 193 0.0 0.0 0.00 0.00 0.00 88 1019.1
20260831121524 53 195 0.0 0.0 0.00 0.00 0.00 89 1019.2
20260831120034 52 319 0.0 0.0 0.00 0.00 0.00 89 1019.1
20260831114530 52 319 0.0 0.0 0.00 0.00 0.00 89 1019.3
20260831113019 52 319 0.0 0.0 0.00 0.00 0.00 89 1019.1
20260831111518 52 319 0.0 0.0 0.00 0.00 0.00 89 1019.0
20260831110016 52 319 0.0 0.0 0.00 0.00 0.00 89 1018.9
20260831104514 52 319 0.0 0.0 0.00 0.00 0.00 89 1018.7
20260831103012 53 319 0.0 0.0 0.00 0.00 0.00 89 1018.6
20260831101510 53 319 0.0 0.0 0.00 0.00 0.00 89 1018.6
20260831100008 53 319 0.0 0.0 0.00 0.00 0.00 89 1018.5
20260831094506 54 319 0.0 0.0 0.00 0.00 0.00 89 1018.4
20260831093010 55 319 0.0 0.0 0.00 0.00 0.00 89 1018.4
20260831091507 55 319 0.0 0.0 0.00 0.00 0.00 89 1018.2
20260831090100 55 319 0.0 0.0 0.00 0.00 0.00 89 1018.1
20260831084608 56 319 0.0 0.0 0.00 0.00 0.00 89 1017.9
20260831083105 56 319 0.0 0.0 0.00 0.00 0.00 89 1017.8
20260831081554 56 321 0.0 4.3 0.00 0.00 0.00 89 1017.7
20260831080052 57 329 0.0 4.3 0.00 0.00 0.00 89 1017.6
20260831074550 57 23 0.0 0.0 0.00 0.00 0.00 89 1017.5
20260831073054 58 34 0.0 0.0 0.00 0.00 0.00 89 1017.4
20260831071546 58 34 0.0 0.0 0.00 0.00 0.00 89 1017.6
20260831070045 59 34 0.0 0.0 0.00 0.00 0.00 89 1017.4
20260831064544 59 34 0.0 0.0 0.00 0.00 0.00 89 1017.4
20260831063042 59 34 0.0 0.0 0.00 0.00 0.00 89 1017.4
20260831061541 60 12 0.0 0.0 0.00 0.00 0.00 89 1017.3
20260831060045 60 12 0.0 0.0 0.00 0.00 0.00 89 1017.5
20260831054538 61 11 0.0 0.0 0.00 0.00 0.00 89 1017.6
20260831053038 61 11 0.0 0.0 0.00 0.00 0.00 89 1017.5
20260831051538 60 13 0.0 0.0 0.00 0.00 0.00 89 1017.5
20260831050036 60 5 0.0 0.0 0.00 0.00 0.00 89 1017.5
20260831044534 60 5 0.0 0.0 0.00 0.00 0.00 89 1017.4
20260831043033 61 5 0.0 0.0 0.00 0.00 0.00 89 1017.3
20260831041532 61 13 0.0 0.0 0.00 0.00 0.00 89 1017.3
20260831040032 61 13 0.0 0.0 0.00 0.00 0.00 89 1017.0
20260831034529 61 355 0.0 0.0 0.00 0.00 0.00 89 1017.1
20260831033035 62 331 0.0 0.0 0.00 0.00 0.00 88 1017.2
20260831031530 62 331 0.0 0.0 0.00 0.00 0.00 88 1017.1
20260831030028 63 284 0.0 0.0 0.00 0.00 0.00 88 1017.2
20260831024527 63 283 0.0 0.0 0.00 0.00 0.00 87 1017.1
20260831023027 64 234 0.0 0.0 0.00 0.00 0.00 87 1017.0
20260831021527 64 238 0.0 0.0 0.00 0.00 0.00 87 1017.1
20260831020026 64 345 0.0 0.0 0.00 0.00 0.00 87 1017.1
20260831014525 64 130 0.0 0.0 0.00 0.00 0.00 86 1017.0
20260831013025 65 130 0.0 0.0 0.00 0.00 0.00 86 1016.8
20260831011525 65 336 0.0 0.0 0.00 0.00 0.00 85 1016.7
20260831010025 65 274 0.0 0.0 0.00 0.00 0.00 85 1016.5
20260831004523 65 187 0.0 7.0 0.00 0.00 0.00 85 1016.4
20260831003022 65 258 0.0 11.3 0.00 0.00 0.00 86 1016.2
20260831001523 65 281 0.0 0.0 0.00 0.00 0.00 86 1015.8
20260831000024 65 317 0.0 7.0 0.00 0.00 0.00 86 1016.0
20260830234529 66 304 0.0 4.3 0.00 0.00 0.00 87 1015.7
20260830233021 66 225 0.0 3.5 0.00 0.00 0.00 86 1015.5
20260830231520 67 283 0.0 1.7 0.00 0.00 0.00 85 1015.3
20260830230020 68 300 0.0 2.6 0.00 0.00 0.00 83 1015.3
20260830224520 68 309 0.0 2.6 0.00 0.00 0.00 80 1015.3
20260830223020 69 236 0.0 7.0 0.00 0.00 0.00 78 1015.6
20260830221519 69 298 0.0 6.1 0.00 0.00 0.00 78 1015.6
20260830220020 69 260 0.0 6.1 0.00 0.00 0.00 77 1015.5
20260830214519 69 212 0.0 7.0 0.00 0.00 0.00 77 1015.4
20260830213017 70 173 0.0 5.2 0.00 0.00 0.00 77 1015.1
20260830211516 70 209 0.0 5.2 0.00 0.00 0.00 76 1015.4
20260830210015 70 181 0.0 6.1 0.00 0.00 0.00 75 1015.4
20260830204514 71 209 0.0 4.3 0.00 0.00 0.00 74 1015.5
20260830203032 72 213 1.7 6.1 0.00 0.00 0.00 73 1015.6
20260830201514 72 196 0.0 4.3 0.00 0.00 0.00 72 1015.6
20260830200017 73 215 2.6 6.1 0.00 0.00 0.00 72 1015.5
20260830194511 74 260 0.0 3.5 0.00 0.00 0.00 71 1015.7
20260830193010 74 168 0.9 6.1 0.00 0.00 0.00 71 1015.9
20260830191510 74 209 0.0 5.2 0.00 0.00 0.00 71 1016.0
20260830190005 73 291 1.7 9.6 0.00 0.00 0.00 71 1016.2
20260830184506 73 194 2.6 7.8 0.00 0.00 0.00 71 1016.3
20260830183100 73 273 0.0 3.5 0.00 0.00 0.00 71 1016.4
20260830181606 72 169 0.0 0.0 0.00 0.00 0.00 72 1016.6
20260830180058 72 195 0.0 0.0 0.00 0.00 0.00 72 1016.7
20260830174613 72 244 0.0 0.0 0.00 0.00 0.00 71 1017.0
20260830173109 72 205 0.0 0.0 0.00 0.00 0.00 71 1017.0
20260830171554 71 205 0.0 0.0 0.00 0.00 0.00 70 1017.3
20260830170049 71 196 0.0 0.9 0.00 0.00 0.00 72 1017.4
20260830164547 70 286 0.0 0.0 0.00 0.00 0.00 73 1017.6
20260830163043 69 236 0.0 4.3 0.00 0.00 0.00 74 1017.8
20260830161539 68 163 0.0 2.6 0.00 0.00 0.00 77 1017.9
20260830160036 67 286 0.0 4.3 0.00 0.00 0.00 76 1018.1
20260830154533 66 207 0.0 0.0 0.00 0.00 0.00 78 1018.3
20260830153033 66 219 0.0 0.0 0.00 0.00 0.00 81 1018.6
20260830151529 65 201 0.0 1.7 0.00 0.00 0.00 82 1018.7
20260830150034 65 207 1.7 5.2 0.00 0.00 0.00 83 1018.7
20260830144534 66 157 0.0 0.0 0.00 0.00 0.00 81 1018.3
20260830143035 65 157 0.0 0.0 0.00 0.00 0.00 80 1018.7
20260830141522 65 157 0.0 0.0 0.00 0.00 0.00 80 1018.8
20260830140020 65 167 0.0 2.6 0.00 0.00 0.00 82 1018.8
20260830134527 64 143 0.0 4.3 0.00 0.00 0.00 84 1018.8
20260830133015 63 150 0.0 0.0 0.00 0.00 0.00 86 1018.8
20260830131527 63 150 0.0 0.0 0.00 0.00 0.00 87 1018.9
20260830130010 62 150 0.0 0.0 0.00 0.00 0.00 87 1019.0